Regional Weather Roundup
Issued by NWS

Home | Current Version | Previous Version | Text Only | Print | Product List | Glossary On
Versions: 1 2 3 4 5 6 7 8 9 10 11 12 13 14 15 16 17 18 19 20 21 22 23 24 25 26 27 28 29 30 31 32 33 34 35 36 37 38 39 40 41 42 43 44 45 46 47 48 49 50
000
ASUS43 KLMK 270910
RWRKY
KENTUCKY REGIONAL WEATHER ROUNDUP
NATIONAL WEATHER SERVICE LOUISVILLE KY
400 AM EST MON FEB 27 2017

NOTE "FAIR" INDICATES FEW OR NO CLOUDS BELOW 12,000 FEET
WITH NO SIGNIFICANT WEATHER AND/OR OBSTRUCTIONS TO VISIBILITY.

KYZ001>023-026-027-061>063-070>075-271000-
WESTERN AND SOUTH CENTRAL KENTUCKY

CITY           SKY/WX    TMP DP  RH WIND       PRES   REMARKS
PADUCAH        LGT RAIN  46  39  76 CALM      30.13S
HENDERSON      CLOUDY    45  36  70 S3        30.16F
OWENSBORO      LGT RAIN  46  38  73 SW9       30.19R
HOPKINSVILLE   DRIZZLE   47  42  83 SE7       30.16F
BOWLING GREEN  CLOUDY    47  40  76 S6        30.22S
GLASGOW        LGT RAIN  44  39  81 SW3       30.23S
$$

KYZ024-025-028>034-038-045-046-053-271000-
NORTH CENTRAL KENTUCKY

CITY           SKY/WX    TMP DP  RH WIND       PRES   REMARKS
LOUISVILLE/SDF LGT RAIN  49  31  49 SW10      30.22R
LOUISVILLE/LOU CLOUDY    49  31  49 S6        30.22R
FORT KNOX      LGT RAIN  46  35  64 SW10      30.20R
$$

KYZ035>037-039>044-047>052-055>060-089>105-271000-
NORTHEAST KENTUCKY

CITY           SKY/WX    TMP DP  RH WIND       PRES   REMARKS
LEXINGTON      LGT RAIN  45  34  65 W13G22    30.24R
COVINGTON      CLOUDY    44  22  41 S7        30.19S
FRANKFORT      LGT RAIN  47  33  58 S9        30.22R
$$

KYZ054-064>069-076>088-106>120-271000-
SOUTHEAST KENTUCKY

CITY           SKY/WX    TMP DP  RH WIND       PRES   REMARKS
JACKSON        CLOUDY    42  19  39 CALM      30.24R
LONDON         CLOUDY    44  24  45 S5        30.25R
SOMERSET       CLOUDY    41  30  65 S5        30.27R
MIDDLESBORO    PTCLDY    34  29  83 CALM      30.26R
MONTICELLO     LGT RAIN  47  34  60 VRB7G22   30.24F
$$





USA.gov is the U.S. government's official web portal to all federal, state and local government web resources and services.